Regional Weather Roundup
Issued by NWS

Home | Current Version | Previous Version | Graphics & Text | Print | Product List | Glossary On
Versions: 1 2 3 4 5 6 7 8 9 10 11 12 13 14 15 16 17 18 19 20 21 22 23 24 25 26 27 28 29 30 31 32 33 34 35 36 37 38 39 40 41 42 43 44 45 46 47 48 49 50
173
ASUS43 KIND 211859
RWRIN

WEATHER ROUNDUP FOR INDIANA
NATIONAL WEATHER SERVICE INDIANAPOLIS IN
300 PM EDT SAT APR 21 2018

NOTE: "FAIR" INDICATES FEW OR NO CLOUDS BELOW 12,000 FEET WITH NO
SIGNIFICANT WEATHER AND/OR OBSTRUCTIONS TO VISIBILITY.

* - STATION DOES NOT REPORT WEATHER SUCH AS PRECIPITATION OR FOG.

+ - STATION NOT QUALITY CONTROLLED BY THE NATIONAL WEATHER SERVICE.
    USE DATA WITH CAUTION...ESPECIALLY DEWPOINT AND RELATIVE
    HUMIDITY OBSERVATIONS.

INZ001>003-010>013-019-020-212000-
NORTHWEST INDIANA

CITY           SKY/WX    TMP DP  RH WIND       PRES   REMARKS
GARY /AIRPORT/ CLOUDY    50  28  43 CALM      30.43S
KNOX *+        CLOUDY    54  28  37 E3        30.41F
MONTICELLO +   CLOUDY    55  24  30 SE5       30.40S

$$

LMZ046-743>745-212000-
SOUTHERN LAKE MICHIGAN

STATION/POSITION TIME  TEMP    WIND        PRES    WAVE
                       AIR SEA DIR/SP/G            HT
                 (UTC) (F)     (DEG/KT/KT) (MB)    (FT)
BURNS HARBOR     1840   42      60/  6/  9 1030.5F
MICHIGAN CITY    1830   41      40/  8/  8   N/A

$$

INZ004-005-014>016-021>024-212000-
NORTH CENTRAL INDIANA

CITY           SKY/WX    TMP DP  RH WIND       PRES   REMARKS
ELKHART        SUNNY     57  28  33 S5        30.41F
GOSHEN         PTSUNNY   55  27  34 CALM      30.41F
ROCHESTER +    FAIR      55  27  33 SE6       30.41F
SOUTH BEND     FAIR      54  26  34 W6        30.43F
WARSAW +       FAIR      54  27  35 CALM      30.41F

$$

INZ006>009-017-018-025>027-212000-
NORTHEAST INDIANA

CITY           SKY/WX    TMP DP  RH WIND       PRES   REMARKS
ANGOLA *+      FAIR      54  25  32 S5        30.41F
FORT WAYNE     CLOUDY    54  26  34 E9        30.42F
KENDALLVILLE +   N/A     54  17  23 S5        30.41F

$$

INZ028-029-035-036-043>045-051>053-212000-
WEST CENTRAL INDIANA

CITY           SKY/WX    TMP DP  RH WIND       PRES   REMARKS
GREENCASTLE +  FAIR      59  28  31 E5        30.36F
LAFAYETTE      PTSUNNY   57  29  34 E8        30.38F
TERRE HAUTE    FAIR      61  29  29 NE5       30.34F

$$

INZ030>032-037>040-046>048-054>057-064-065-212000-
CENTRAL INDIANA

CITY           SKY/WX    TMP DP  RH WIND       PRES   REMARKS
ANDERSON       FAIR      57  25  28 E7        30.39F
COLUMBUS       PTSUNNY   61 N/A N/A E5        30.37F
GREENWOOD *+   FAIR      57  24  27 E6        30.37F
INDIANAPOLIS   PTSUNNY   58  24  27 E13       30.36F
-EAGLE CREEK   FAIR      58  26  29 SE9       30.36F
KOKOMO +       PTSUNNY   57  23  26 E12       30.39F
MT COMFORT *+  FAIR      57  28  33 E8        30.37F
SHELBYVILLE    FAIR      61  20  20 E8        30.36F
ZIONSVILLE +   FAIR      57  25  29 E7        30.38F

$$

INZ033-034-041-042-049-050-058-059-212000-
EAST CENTRAL INDIANA

CITY           SKY/WX    TMP DP  RH WIND       PRES   REMARKS
MUNCIE         FAIR      58  21  24 E12       30.38F
RICHMOND +     FAIR      55  23  28 NE6       30.39F

$$

INZ060-061-067>069-081>083-085>088-212000-
SOUTHWEST INDIANA

CITY           SKY/WX    TMP DP  RH WIND       PRES   REMARKS
EVANSVILLE     FAIR      68  29  23 E5        30.28F
HUNTINGBURG +  FAIR      68  31  25 VRB6      30.29F

$$

INZ062-063-066-070>080-084-089>092-212000-
SOUTH CENTRAL AND SOUTHEAST INDIANA

CITY           SKY/WX    TMP DP  RH WIND       PRES   REMARKS
BLOOMINGTON    FAIR      63  25  23 E7        30.32F
MADISON *+     FAIR      64  21  19 N6        30.35F
SEYMOUR +      FAIR      64  32  29 NE5       30.34F

$$





USA.gov is the U.S. government's official web portal to all federal, state and local government web resources and services.